| time (UTC) | temp F | wind direction | speed knots | gust knots | rain 1hr in | rain 24hr in | rain mn in | humidity % | barometer mb |
| 20260905204511 | 0 | 0.0 | 0.0 | 0.31 | 0.00 | 0.00 | |||
| 20260905204010 | 0 | 0.0 | 0.0 | 0.31 | 0.00 | 0.00 | |||
| 20260905203510 | 0 | 0.0 | 0.0 | 0.31 | 0.00 | 0.00 | |||
| 20260905180510 | 84 | 104 | 0.0 | 0.0 | 0.00 | 0.00 | 0.01 | 64 | 1008.4 |
| 20260905180011 | 84 | 115 | 0.0 | 0.0 | 0.00 | 0.00 | 0.01 | 66 | 1008.4 |
| 20260905175512 | 84 | 59 | 0.0 | 0.0 | 0.00 | 0.00 | 0.01 | 66 | 1008.8 |
| 20260905175011 | 83 | 59 | 0.0 | 0.0 | 0.00 | 0.00 | 0.01 | 66 | 1008.8 |
| 20260905174511 | 83 | 60 | 0.0 | 0.0 | 0.00 | 0.00 | 0.01 | 66 | 1008.8 |
| 20260905174011 | 83 | 33 | 0.0 | 0.0 | 0.00 | 0.00 | 0.01 | 70 | 1008.8 |
| 20260905173512 | 82 | 27 | 0.0 | 0.0 | 0.00 | 0.00 | 0.01 | 69 | 1008.8 |
| 20260905172510 | 82 | 0.0 | 0.0 | 0.00 | 0.00 | 0.01 | 70 | 1008.9 | |
| 20260905172012 | 82 | 198 | 0.0 | 0.0 | 0.00 | 0.00 | 0.01 | 70 | 1008.9 |
| 20260905171512 | 82 | 97 | 0.0 | 0.0 | 0.00 | 0.00 | 0.01 | 71 | 1008.9 |
| 20260905171011 | 81 | 70 | 0.0 | 0.0 | 0.00 | 0.00 | 0.01 | 72 | 1008.9 |
| 20260905170510 | 80 | 70 | 0.0 | 3.5 | 0.00 | 0.00 | 0.01 | 76 | 1008.9 |
| 20260905170010 | 80 | 70 | 0.0 | 0.0 | 0.00 | 0.00 | 0.01 | 75 | 1008.9 |
| 20260905165511 | 79 | 56 | 0.0 | 0.0 | 0.00 | 0.00 | 0.01 | 75 | 1009.2 |
| 20260905164510 | 79 | 42 | 1.7 | 0.0 | 0.00 | 0.00 | 0.01 | 81 | 1009.2 |
| 20260905164010 | 78 | 100 | 0.0 | 4.3 | 0.00 | 0.00 | 0.01 | 79 | 1009.5 |
| 20260905163511 | 78 | 96 | 2.6 | 0.0 | 0.00 | 0.00 | 0.01 | 82 | 1009.5 |
| 20260905163012 | 78 | 104 | 0.0 | 0.0 | 0.00 | 0.00 | 0.01 | 86 | 1009.5 |
| 20260905162510 | 78 | 104 | 0.0 | 0.0 | 0.00 | 0.00 | 0.01 | 87 | 1009.8 |
| 20260905162010 | 77 | 104 | 0.9 | 0.0 | 0.00 | 0.00 | 0.01 | 88 | 1009.8 |
| 20260905161510 | 77 | 172 | 0.0 | 1.7 | 0.00 | 0.00 | 0.01 | 90 | 1009.8 |
| 20260905161010 | 76 | 173 | 0.0 | 0.0 | 0.00 | 0.00 | 0.01 | 91 | 1009.9 |
| 20260905160011 | 76 | 173 | 0.0 | 0.0 | 0.00 | 0.00 | 0.01 | 94 | 1009.9 |
| 20260905155512 | 76 | 173 | 0.0 | 0.0 | 0.00 | 0.00 | 0.01 | 92 | 1009.5 |
| 20260905155010 | 76 | 144 | 0.0 | 2.6 | 0.00 | 0.00 | 0.01 | 93 | 1009.5 |
| 20260905153510 | 75 | 179 | 0.0 | 0.0 | 0.00 | 0.00 | 0.01 | 93 | 1009.8 |
| 20260905153010 | 75 | 316 | 0.0 | 0.0 | 0.00 | 0.00 | 0.01 | 94 | 1009.8 |
| 20260905152510 | 75 | 318 | 0.0 | 0.0 | 0.00 | 0.00 | 0.01 | 93 | 1009.2 |
| 20260905152010 | 75 | 317 | 0.0 | 0.0 | 0.00 | 0.00 | 0.01 | 94 | 1009.2 |
| 20260905151512 | 75 | 318 | 0.0 | 0.0 | 0.00 | 0.00 | 0.01 | 94 | 1009.2 |
| 20260905151010 | 75 | 200 | 0.0 | 0.0 | 0.00 | 0.00 | 0.01 | 94 | 1008.8 |
| 20260905150010 | 75 | 251 | 0.0 | 5.2 | 0.00 | 0.00 | 0.01 | 95 | 1008.8 |
| 20260905145010 | 75 | 132 | 0.0 | 0.0 | 0.00 | 0.00 | 0.01 | 98 | 1008.7 |
| 20260905144510 | 74 | 132 | 0.0 | 0.0 | 0.00 | 0.00 | 0.01 | 98 | 1008.7 |
| 20260905144012 | 74 | 132 | 0.0 | 0.0 | 0.00 | 0.00 | 0.01 | 98 | 1008.9 |
| 20260905143012 | 74 | 188 | 0.0 | 0.0 | 0.00 | 0.00 | 0.01 | 98 | 1008.9 |
| 20260905142510 | 74 | 169 | 0.0 | 0.0 | 0.00 | 0.00 | 0.01 | 99 | 1009.5 |
| 20260905141511 | 74 | 104 | 1.7 | 0.0 | 0.00 | 0.00 | 0.01 | 99 | 1009.5 |
| 20260905141011 | 73 | 66 | 0.0 | 1.7 | 0.00 | 0.00 | 0.01 | 99 | 1010.0 |
| 20260905140511 | 73 | 66 | 0.0 | 0.0 | 0.00 | 0.00 | 0.01 | 99 | 1010.0 |
| 20260905140011 | 73 | 67 | 0.9 | 0.0 | 0.00 | 0.00 | 0.01 | 99 | 1010.0 |
| 20260905135511 | 73 | 66 | 0.0 | 0.0 | 0.00 | 0.00 | 0.01 | 99 | 1010.6 |
| 20260905135011 | 73 | 66 | 0.0 | 0.0 | 0.00 | 0.00 | 0.01 | 98 | 1010.6 |
| 20260905134511 | 73 | 65 | 0.0 | 0.0 | 0.00 | 0.00 | 0.01 | 98 | 1010.6 |
| 20260905134011 | 73 | 66 | 0.0 | 0.0 | 0.00 | 0.00 | 0.01 | 97 | 1010.4 |
| 20260905133011 | 73 | 66 | 0.0 | 0.0 | 0.00 | 0.00 | 0.01 | 95 | 1010.4 |
| 20260905132511 | 73 | 66 | 0.0 | 0.0 | 0.00 | 0.00 | 0.01 | 93 | 1010.8 |
| 20260905132013 | 73 | 1 | 0.0 | 3.5 | 0.00 | 0.00 | 0.00 | 93 | 1010.8 |
| 20260905131511 | 73 | 1 | 0.0 | 0.0 | 0.00 | 0.00 | 0.00 | 92 | 1010.8 |
| 20260905130011 | 73 | 107 | 0.0 | 0.0 | 0.00 | 0.00 | 0.00 | 93 | 1010.5 |
| 20260905125011 | 73 | 58 | 0.0 | 0.0 | 0.00 | 0.00 | 0.00 | 93 | 1010.5 |
| 20260905124511 | 73 | 58 | 0.0 | 0.0 | 0.00 | 0.00 | 0.00 | 94 | 1010.5 |
| 20260905124013 | 74 | 69 | 0.0 | 0.0 | 0.00 | 0.00 | 0.00 | 94 | 1010.4 |
| 20260905123511 | 73 | 297 | 0.0 | 0.0 | 0.00 | 0.00 | 0.00 | 95 | 1010.4 |
| 20260905123011 | 73 | 13 | 0.0 | 9.6 | 0.00 | 0.00 | 0.00 | 97 | 1010.4 |
| 20260905121511 | 73 | 273 | 0.0 | 0.0 | 0.00 | 0.00 | 0.00 | 100 | 1010.5 |
| 20260905121011 | 73 | 176 | 1.7 | 0.0 | 0.00 | 0.00 | 0.00 | 100 | 1009.0 |
| 20260905120511 | 73 | 176 | 0.0 | 0.0 | 0.00 | 0.00 | 0.00 | 100 | 1009.0 |
| 20260905120011 | 73 | 176 | 0.0 | 0.0 | 0.00 | 0.00 | 0.00 | 100 | 1009.0 |
| 20260905115512 | 73 | 176 | 0.0 | 0.0 | 0.00 | 0.00 | 0.00 | 100 | 1008.8 |
| 20260905115010 | 73 | 176 | 0.0 | 0.0 | 0.00 | 0.00 | 0.00 | 100 | 1008.8 |
| 20260905114011 | 72 | 330 | 4.3 | 9.6 | 0.00 | 0.00 | 0.00 | 100 | 1007.8 |
| 20260905113511 | 72 | 295 | 3.5 | 0.0 | 0.00 | 0.00 | 0.00 | 100 | 1007.8 |
| 20260905113011 | 72 | 132 | 0.0 | 0.0 | 0.00 | 0.00 | 0.00 | 100 | 1007.8 |
| 20260905111511 | 72 | 132 | 0.0 | 0.0 | 0.00 | 0.00 | 0.00 | 100 | 1007.8 |
| 20260905111011 | 72 | 131 | 0.0 | 0.0 | 0.00 | 0.00 | 0.00 | 100 | 1007.7 |
| 20260905110511 | 72 | 131 | 0.0 | 0.0 | 0.00 | 0.00 | 0.00 | 100 | 1007.7 |
| 20260905110011 | 72 | 131 | 0.0 | 0.0 | 0.00 | 0.00 | 0.00 | 100 | 1007.7 |
| 20260905104011 | 72 | 131 | 0.0 | 0.0 | 0.00 | 0.00 | 0.00 | 100 | 1007.7 |
| 20260905103512 | 72 | 132 | 0.0 | 0.0 | 0.00 | 0.00 | 0.00 | 100 | 1007.7 |
| 20260905103011 | 72 | 131 | 0.0 | 0.0 | 0.00 | 0.00 | 0.00 | 100 | 1007.7 |
| 20260905102514 | 72 | 132 | 0.0 | 0.0 | 0.00 | 0.00 | 0.00 | 100 | 1007.7 |
| 20260905102011 | 72 | 132 | 0.0 | 0.0 | 0.00 | 0.00 | 0.00 | 100 | 1007.7 |
| 20260905101011 | 72 | 131 | 0.0 | 0.0 | 0.00 | 0.00 | 0.00 | 100 | 1007.7 |
| 20260905100512 | 72 | 131 | 0.0 | 0.0 | 0.00 | 0.00 | 0.00 | 100 | 1007.7 |
| 20260905100011 | 72 | 132 | 0.0 | 0.0 | 0.00 | 0.00 | 0.00 | 100 | 1007.7 |
| 20260905095510 | 72 | 132 | 0.0 | 0.0 | 0.00 | 0.00 | 0.00 | 100 | 1007.7 |
| 20260905095011 | 72 | 132 | 0.0 | 0.0 | 0.00 | 0.00 | 0.00 | 100 | 1007.7 |
| 20260905094512 | 72 | 132 | 0.0 | 0.0 | 0.00 | 0.00 | 0.00 | 100 | 1007.7 |
| 20260905094011 | 72 | 132 | 0.0 | 0.0 | 0.00 | 0.00 | 0.00 | 100 | 1007.7 |
| 20260905093010 | 72 | 131 | 0.0 | 0.0 | 0.00 | 0.00 | 0.00 | 100 | 1007.7 |
| 20260905092010 | 72 | 132 | 0.0 | 0.0 | 0.00 | 0.00 | 0.00 | 100 | 1007.8 |
| 20260905091511 | 72 | 132 | 0.0 | 0.0 | 0.00 | 0.00 | 0.00 | 100 | 1007.8 |
| 20260905091010 | 72 | 132 | 0.0 | 0.0 | 0.00 | 0.00 | 0.00 | 100 | 1007.6 |
| 20260905090510 | 72 | 132 | 0.0 | 0.0 | 0.00 | 0.00 | 0.00 | 100 | 1007.6 |
| 20260905090010 | 72 | 132 | 0.0 | 0.0 | 0.00 | 0.00 | 0.00 | 100 | 1007.6 |
| 20260905085511 | 72 | 132 | 0.0 | 0.0 | 0.00 | 0.00 | 0.00 | 100 | 1007.4 |
| 20260905085010 | 72 | 132 | 0.0 | 0.0 | 0.00 | 0.00 | 0.00 | 100 | 1007.4 |
| 20260905084511 | 72 | 132 | 0.0 | 0.0 | 0.00 | 0.00 | 0.00 | 100 | 1007.4 |
| 20260905084012 | 72 | 132 | 0.0 | 0.0 | 0.00 | 0.00 | 0.00 | 100 | 1007.6 |
| 20260905083510 | 72 | 132 | 0.0 | 0.0 | 0.00 | 0.00 | 0.00 | 100 | 1007.6 |
| 20260905082511 | 72 | 133 | 0.0 | 0.0 | 0.00 | 0.00 | 0.00 | 100 | 1007.4 |
| 20260905082010 | 72 | 132 | 0.0 | 0.0 | 0.00 | 0.00 | 0.00 | 100 | 1007.4 |
| 20260905081510 | 72 | 132 | 0.0 | 0.0 | 0.00 | 0.00 | 0.00 | 100 | 1007.4 |
| 20260905081010 | 72 | 132 | 0.0 | 0.0 | 0.00 | 0.00 | 0.00 | 100 | 1007.4 |
| 20260905080510 | 72 | 131 | 0.0 | 0.0 | 0.00 | 0.00 | 0.00 | 100 | 1007.4 |
| 20260905080011 | 72 | 131 | 0.0 | 0.0 | 0.00 | 0.00 | 0.00 | 100 | 1007.4 |
| 20260905075510 | 72 | 132 | 0.0 | 0.0 | 0.00 | 0.00 | 0.00 | 100 | 1007.6 |
| 20260905075010 | 72 | 132 | 0.0 | 0.0 | 0.00 | 0.00 | 0.00 | 100 | 1007.6 |
| 20260905074511 | 72 | 132 | 0.0 | 0.0 | 0.00 | 0.00 | 0.00 | 100 | 1007.6 |
| 20260905074011 | 72 | 132 | 0.0 | 0.0 | 0.00 | 0.00 | 0.00 | 100 | 1007.6 |
| 20260905073010 | 73 | 131 | 0.0 | 0.0 | 0.00 | 0.00 | 0.00 | 100 | 1007.6 |
| 20260905072010 | 73 | 132 | 0.0 | 0.0 | 0.00 | 0.00 | 0.00 | 100 | 1007.9 |
| 20260905071011 | 73 | 131 | 0.9 | 0.0 | 0.00 | 0.00 | 0.00 | 100 | 1008.2 |
| 20260905070010 | 73 | 132 | 0.0 | 0.0 | 0.00 | 0.00 | 0.00 | 100 | 1008.2 |
| 20260905065510 | 73 | 132 | 0.0 | 0.0 | 0.00 | 0.00 | 0.00 | 100 | 1008.5 |
| 20260905064511 | 73 | 132 | 0.0 | 0.0 | 0.00 | 0.00 | 0.00 | 100 | 1008.5 |
| 20260905064011 | 73 | 132 | 0.0 | 0.0 | 0.00 | 0.00 | 0.00 | 100 | 1008.7 |
| 20260905063511 | 73 | 131 | 0.0 | 0.0 | 0.00 | 0.00 | 0.00 | 100 | 1008.7 |
| 20260905063011 | 73 | 133 | 0.0 | 0.0 | 0.00 | 0.00 | 0.00 | 100 | 1008.7 |
| 20260905061510 | 73 | 133 | 0.0 | 0.0 | 0.00 | 0.00 | 0.00 | 100 | 1009.2 |
| 20260905061011 | 74 | 132 | 0.0 | 0.0 | 0.00 | 0.00 | 0.00 | 100 | 1009.2 |
| 20260905055513 | 74 | 132 | 0.0 | 0.0 | 0.00 | 0.00 | 0.00 | 100 | 1009.2 |
| 20260905055013 | 74 | 131 | 0.0 | 0.0 | 0.00 | 0.00 | 0.00 | 100 | 1009.2 |
| 20260905054513 | 74 | 132 | 0.0 | 0.0 | 0.00 | 0.00 | 0.00 | 100 | 1009.2 |
| 20260905053511 | 74 | 131 | 0.0 | 0.0 | 0.00 | 0.00 | 0.00 | 100 | 1009.4 |
| 20260905053011 | 74 | 132 | 0.0 | 0.0 | 0.00 | 0.00 | 0.00 | 100 | 1009.4 |
| 20260905052511 | 74 | 132 | 0.0 | 0.0 | 0.00 | 0.00 | 0.00 | 100 | 1009.6 |
| 20260905052011 | 74 | 132 | 0.0 | 0.0 | 0.00 | 0.00 | 0.00 | 100 | 1009.6 |
| 20260905051011 | 74 | 133 | 0.0 | 0.0 | 0.00 | 0.00 | 0.00 | 100 | 1009.6 |
| 20260905050511 | 74 | 132 | 0.0 | 0.0 | 0.00 | 0.00 | 0.00 | 100 | 1009.6 |
| 20260905050013 | 74 | 132 | 0.0 | 0.0 | 0.00 | 0.00 | 0.00 | 100 | 1009.6 |
| 20260905045511 | 74 | 132 | 0.0 | 0.0 | 0.00 | 0.00 | 0.00 | 100 | 1009.7 |
| 20260905045011 | 74 | 131 | 0.0 | 0.0 | 0.00 | 0.00 | 0.00 | 100 | 1009.7 |
| 20260905044511 | 75 | 132 | 0.0 | 0.0 | 0.00 | 0.00 | 0.00 | 100 | 1009.7 |
| 20260905044011 | 75 | 132 | 0.0 | 0.0 | 0.00 | 0.00 | 0.00 | 100 | 1009.7 |
| 20260905043511 | 75 | 131 | 0.0 | 0.0 | 0.00 | 0.00 | 0.00 | 100 | 1009.7 |
| 20260905043011 | 75 | 132 | 0.0 | 0.0 | 0.00 | 0.00 | 0.00 | 100 | 1009.7 |
| 20260905042511 | 75 | 131 | 0.0 | 0.0 | 0.00 | 0.00 | 0.00 | 100 | 1009.7 |
| 20260905042011 | 75 | 131 | 0.0 | 0.0 | 0.00 | 0.00 | 0.00 | 100 | 1009.7 |
| 20260905041511 | 75 | 133 | 0.0 | 0.0 | 0.00 | 0.00 | 0.00 | 100 | 1009.7 |
| 20260905041012 | 75 | 131 | 0.0 | 0.0 | 0.00 | 0.00 | 0.00 | 100 | 1009.7 |
| 20260905040011 | 75 | 132 | 0.0 | 0.0 | 0.00 | 0.00 | 0.00 | 99 | 1009.7 |
| 20260905035511 | 75 | 132 | 0.0 | 0.0 | 0.00 | 0.00 | 0.00 | 99 | 1009.5 |
| 20260905035013 | 75 | 133 | 0.0 | 0.0 | 0.00 | 0.00 | 0.00 | 99 | 1009.5 |
| 20260905034511 | 75 | 132 | 0.0 | 0.0 | 0.00 | 0.00 | 0.00 | 99 | 1009.5 |
| 20260905034011 | 75 | 132 | 0.0 | 0.0 | 0.00 | 0.00 | 0.00 | 98 | 1009.4 |
| 20260905033511 | 75 | 133 | 0.0 | 0.0 | 0.00 | 0.00 | 0.00 | 98 | 1009.4 |
| 20260905033011 | 76 | 132 | 0.0 | 0.0 | 0.00 | 0.00 | 0.00 | 98 | 1009.4 |
| 20260905032511 | 76 | 132 | 0.0 | 0.0 | 0.00 | 0.00 | 0.00 | 98 | 1009.2 |
| 20260905032011 | 76 | 132 | 0.0 | 0.0 | 0.00 | 0.00 | 0.00 | 97 | 1009.2 |
| 20260905031511 | 76 | 132 | 0.0 | 0.0 | 0.00 | 0.00 | 0.00 | 97 | 1009.2 |
| 20260905030511 | 76 | 132 | 0.0 | 0.0 | 0.00 | 0.00 | 0.00 | 97 | 1009.5 |
| 20260905030010 | 76 | 132 | 0.0 | 0.0 | 0.00 | 0.00 | 0.00 | 97 | 1009.5 |
| 20260905024511 | 76 | 132 | 0.0 | 0.0 | 0.00 | 0.00 | 0.00 | 96 | 1009.3 |
| 20260905024011 | 77 | 132 | 0.0 | 0.0 | 0.00 | 0.00 | 0.00 | 96 | 1009.3 |
| 20260905023511 | 77 | 131 | 0.0 | 0.0 | 0.00 | 0.00 | 0.00 | 96 | 1009.3 |
| 20260905023011 | 77 | 132 | 0.0 | 0.0 | 0.00 | 0.00 | 0.00 | 95 | 1009.3 |
| 20260905022510 | 77 | 132 | 0.0 | 0.0 | 0.00 | 0.00 | 0.00 | 95 | 1009.3 |
| 20260905022011 | 77 | 133 | 0.0 | 0.0 | 0.00 | 0.00 | 0.00 | 95 | 1009.3 |
| 20260905021511 | 77 | 132 | 0.0 | 0.0 | 0.00 | 0.00 | 0.00 | 95 | 1009.3 |
| 20260905021011 | 77 | 132 | 0.0 | 0.0 | 0.00 | 0.00 | 0.00 | 94 | 1009.3 |
| 20260905020510 | 77 | 132 | 0.0 | 0.0 | 0.00 | 0.00 | 0.00 | 94 | 1009.3 |
| 20260905015510 | 78 | 133 | 0.0 | 0.0 | 0.00 | 0.00 | 0.00 | 94 | 1009.5 |
| 20260905015011 | 78 | 131 | 0.0 | 0.0 | 0.00 | 0.00 | 0.00 | 93 | 1009.5 |
| 20260905014510 | 78 | 132 | 0.0 | 0.0 | 0.00 | 0.00 | 0.00 | 93 | 1009.5 |
| 20260905014012 | 78 | 131 | 0.0 | 0.0 | 0.00 | 0.00 | 0.00 | 93 | 1009.3 |
| 20260905013010 | 78 | 132 | 0.0 | 0.0 | 0.00 | 0.00 | 0.00 | 92 | 1009.3 |
| 20260905012512 | 78 | 132 | 0.0 | 0.0 | 0.00 | 0.00 | 0.00 | 92 | 1009.3 |
| 20260905012010 | 78 | 132 | 0.0 | 0.0 | 0.00 | 0.00 | 0.00 | 92 | 1009.3 |
| 20260905011010 | 78 | 132 | 0.0 | 0.0 | 0.00 | 0.00 | 0.00 | 91 | 1009.0 |
| 20260905010510 | 78 | 132 | 0.0 | 0.0 | 0.00 | 0.00 | 0.00 | 91 | 1009.0 |
| 20260905010010 | 79 | 132 | 0.0 | 0.0 | 0.00 | 0.00 | 0.00 | 91 | 1009.0 |
| 20260905005511 | 79 | 132 | 0.0 | 0.0 | 0.00 | 0.00 | 0.00 | 90 | 1008.7 |
| 20260905005010 | 79 | 132 | 0.0 | 0.0 | 0.00 | 0.00 | 0.00 | 90 | 1008.7 |
| 20260905004510 | 80 | 132 | 0.0 | 0.0 | 0.00 | 0.00 | 0.00 | 88 | 1008.7 |
| 20260905004011 | 80 | 132 | 0.0 | 0.0 | 0.00 | 0.00 | 0.00 | 87 | 1008.1 |
| 20260905003010 | 80 | 132 | 0.0 | 0.0 | 0.00 | 0.00 | 0.00 | 86 | 1008.1 |
| 20260905002512 | 81 | 132 | 0.0 | 0.0 | 0.00 | 0.00 | 0.00 | 84 | 1007.5 |
| 20260905002010 | 81 | 132 | 0.0 | 0.0 | 0.00 | 0.00 | 0.00 | 83 | 1007.5 |
| 20260905001010 | 81 | 132 | 0.0 | 0.0 | 0.00 | 0.00 | 0.00 | 83 | 1007.6 |
| 20260905000510 | 81 | 132 | 0.0 | 0.0 | 0.00 | 0.00 | 0.00 | 82 | 1007.6 |
| 20260905000012 | 82 | 132 | 0.0 | 1.7 | 0.00 | 0.00 | 0.00 | 82 | 1007.6 |
| 20260904235510 | 82 | 132 | 0.0 | 0.0 | 0.00 | 0.00 | 0.00 | 82 | 1007.8 |
| 20260904235010 | 82 | 132 | 0.0 | 0.0 | 0.00 | 0.00 | 0.00 | 82 | 1007.8 |
| 20260904234510 | 82 | 132 | 0.0 | 0.0 | 0.00 | 0.00 | 0.00 | 82 | 1007.8 |
| 20260904234010 | 82 | 132 | 0.0 | 0.0 | 0.00 | 0.00 | 0.00 | 80 | 1008.1 |
| 20260904233510 | 82 | 132 | 0.0 | 1.7 | 0.00 | 0.00 | 0.00 | 78 | 1008.1 |
| 20260904233010 | 82 | 132 | 0.0 | 0.0 | 0.00 | 0.00 | 0.00 | 77 | 1008.1 |
| 20260904232510 | 82 | 103 | 0.0 | 0.0 | 0.00 | 0.00 | 0.00 | 77 | 1008.8 |
| 20260904231510 | 83 | 102 | 0.0 | 0.0 | 0.00 | 0.00 | 0.00 | 71 | 1008.8 |
| 20260904231010 | 84 | 103 | 0.0 | 0.0 | 0.00 | 0.00 | 0.00 | 73 | 1008.8 |
| 20260904230510 | 84 | 103 | 0.0 | 0.0 | 0.00 | 0.00 | 0.00 | 69 | 1008.8 |
| 20260904230010 | 84 | 103 | 0.0 | 0.0 | 0.00 | 0.00 | 0.00 | 69 | 1008.8 |
| 20260904225013 | 84 | 117 | 0.0 | 0.0 | 0.00 | 0.00 | 0.00 | 70 | 1008.9 |
| 20260904224511 | 84 | 141 | 0.0 | 3.5 | 0.00 | 0.00 | 0.00 | 70 | 1008.9 |
| 20260904224012 | 84 | 181 | 0.0 | 0.0 | 0.00 | 0.00 | 0.00 | 69 | 1009.3 |
| 20260904223511 | 84 | 199 | 0.0 | 0.0 | 0.00 | 0.00 | 0.00 | 70 | 1009.3 |
| 20260904223011 | 84 | 155 | 0.0 | 0.0 | 0.00 | 0.00 | 0.00 | 69 | 1009.3 |
| 20260904222511 | 84 | 116 | 0.9 | 0.0 | 0.00 | 0.00 | 0.00 | 69 | 1009.7 |
| 20260904222013 | 84 | 25 | 1.7 | 0.0 | 0.00 | 0.00 | 0.00 | 69 | 1009.7 |
| 20260904221511 | 85 | 26 | 0.0 | 0.0 | 0.00 | 0.00 | 0.00 | 69 | 1009.7 |
| 20260904221011 | 85 | 26 | 0.0 | 0.0 | 0.00 | 0.00 | 0.00 | 67 | 1009.8 |
| 20260904220011 | 85 | 161 | 0.0 | 0.0 | 0.00 | 0.00 | 0.00 | 68 | 1009.8 |
| 20260904215511 | 85 | 161 | 0.0 | 0.9 | 0.00 | 0.00 | 0.00 | 67 | 1009.7 |
| 20260904215011 | 85 | 55 | 0.0 | 0.0 | 0.00 | 0.00 | 0.00 | 67 | 1009.7 |
| 20260904214511 | 85 | 55 | 0.0 | 0.0 | 0.00 | 0.00 | 0.00 | 67 | 1009.7 |
| 20260904214011 | 85 | 55 | 0.0 | 0.0 | 0.00 | 0.00 | 0.00 | 67 | 1010.0 |
| 20260904213511 | 85 | 55 | 0.0 | 0.0 | 0.00 | 0.00 | 0.00 | 66 | 1010.0 |
| 20260904213011 | 85 | 41 | 0.0 | 0.9 | 0.00 | 0.00 | 0.00 | 67 | 1010.0 |
| 20260904212511 | 85 | 41 | 0.0 | 0.0 | 0.00 | 0.00 | 0.00 | 67 | 1009.8 |
| 20260904212011 | 85 | 41 | 0.0 | 0.0 | 0.00 | 0.00 | 0.00 | 67 | 1009.8 |
| 20260904211511 | 86 | 42 | 0.0 | 0.0 | 0.00 | 0.00 | 0.00 | 66 | 1009.8 |
| 20260904211011 | 86 | 41 | 0.0 | 0.0 | 0.00 | 0.00 | 0.00 | 66 | 1009.9 |
| 20260904210513 | 86 | 107 | 0.0 | 0.0 | 0.00 | 0.00 | 0.00 | 66 | 1009.9 |
| 20260904210012 | 86 | 115 | 0.0 | 0.0 | 0.00 | 0.00 | 0.00 | 66 | 1009.9 |
| 20260904205513 | 86 | 115 | 0.0 | 0.0 | 0.00 | 0.00 | 0.00 | 65 | 1009.5 |